Chattanooga, TN

4:27 AM EST on February 25, 2017 (GMT -0500)
Lovell

Weather History for KCHA - January, 2014

Change the Weather History Date:

Sunday, January 12, 2014

  Actual Average Record
Temperature  
Mean Temperature 46 °F 40 °F  
Max Temperature 59 °F 50 °F 72 °F (2013)
Min Temperature 32 °F 31 °F -1 °F (1918)
Degree Days  
Heating Degree Days 19 25  
Month to date heating degree days 350 300  
Since 1 July heating degree days 1598 1584  
Moisture  
Dew Point 33 °F    
Average Humidity 61    
Maximum Humidity 89    
Minimum Humidity 33    
Precipitation  
Precipitation 0.00 in 0.16 in 1.35 in (1948)
Month to date precipitation 1.84 1.86  
Year to date precipitation 1.84 1.86  
Snow  
Snow 0.00 in 0.10 in - ()
Month to date snowfall T 0.6  
Since 1 July snowfall T 0.9  
Snow Depth 0.00 in    
Sea Level Pressure  
Sea Level Pressure 30.10 in    
Wind  
Wind Speed 3 mph (South)    
Max Wind Speed 14 mph    
Max Gust Speed 17 mph    
Visibility 10 miles    
Events      
T = Trace of Precipitation, MM = Missing Value Source: NWS Daily Summary

Daily Weather History Graph

Daily Weather History Graph

Search for Another Location

Airport or City:

Trip Planner

Search our weather history database for the weather conditions in past years. The results will help you decide how hot, cold, wet, or windy it might be!

Date:

Astronomy

Jan. 12, 2014 Rise Set
Actual Time 7:49 AM EST 5:49 PM EST
Civil Twilight 7:21 AM EST 6:17 PM EST
Nautical Twilight 6:50 AM EST 6:48 PM EST
Astronomical Twilight 6:19 AM EST 7:18 PM EST
Moon 3:16 PM EST (1/12) 4:48 AM EST (1/12)
Length of Visible Light 10h 55m
Length of Day
10h 00m
Waxing Gibbous, 89% of the Moon is Illuminated
Jan 12
Waxing Gibbous
Jan 15
Full
Jan 24
Last Quarter
Jan 30
New
Feb 6
First Quarter

Hourly Weather History & Observations

Time (EST) Temp. Windchill Dew Point Humidity Pressure Visibility Wind Dir Wind Speed Gust Speed Precip Events Conditions
12:53 AM 46.0 °F 40.2 °F 34.0 °F 63% 29.99 in 10.0 mi WNW 12.7 mph - N/A   Clear
1:53 AM 44.1 °F 40.8 °F 33.1 °F 65% 30.00 in 10.0 mi WNW 5.8 mph - N/A   Clear
2:53 AM 39.9 °F - 32.0 °F 73% 30.01 in 10.0 mi Calm Calm - N/A   Clear
3:53 AM 37.0 °F - 32.0 °F 82% 30.03 in 10.0 mi Calm Calm - N/A   Clear
4:53 AM 35.1 °F - 32.0 °F 89% 30.04 in 10.0 mi Calm Calm - N/A   Clear
5:53 AM 34.0 °F - 30.9 °F 89% 30.04 in 10.0 mi Calm Calm - N/A   Clear
6:53 AM 33.1 °F - 30.9 °F 92% 30.08 in 10.0 mi Calm Calm - N/A   Clear
7:53 AM 32.0 °F - 28.9 °F 88% 30.12 in 10.0 mi Calm Calm - N/A   Clear
8:53 AM 35.1 °F - 30.9 °F 85% 30.14 in 10.0 mi Calm Calm - N/A   Clear
9:53 AM 41.0 °F - 35.1 °F 79% 30.17 in 10.0 mi Calm Calm - N/A   Clear
10:53 AM 46.9 °F - 37.0 °F 68% 30.18 in 10.0 mi SE 3.5 mph - N/A   Clear
11:53 AM 51.1 °F - 36.0 °F 56% 30.17 in 10.0 mi SSE 4.6 mph - N/A   Clear
12:53 PM 54.0 °F - 33.1 °F 45% 30.13 in 10.0 mi SSW 3.5 mph - N/A   Clear
1:53 PM 57.0 °F - 33.1 °F 40% 30.10 in 10.0 mi Calm Calm - N/A   Clear
2:53 PM 57.0 °F - 32.0 °F 39% 30.09 in 10.0 mi ESE 4.6 mph - N/A   Clear
3:53 PM 59.0 °F - 30.9 °F 35% 30.10 in 10.0 mi South 10.4 mph - N/A   Clear
4:53 PM 57.9 °F - 32.0 °F 37% 30.10 in 10.0 mi South 8.1 mph - N/A   Clear
5:53 PM 55.9 °F - 32.0 °F 40% 30.11 in 10.0 mi SSE 4.6 mph - N/A   Clear
6:53 PM 52.0 °F - 33.1 °F 49% 30.12 in 10.0 mi Calm Calm - N/A   Clear
7:53 PM 48.9 °F - 33.1 °F 54% 30.13 in 10.0 mi Calm Calm - N/A   Clear
8:53 PM 44.1 °F - 33.1 °F 65% 30.13 in 10.0 mi Calm Calm - N/A   Clear
9:53 PM 41.0 °F - 34.0 °F 76% 30.14 in 10.0 mi Calm Calm - N/A   Clear
10:53 PM 41.0 °F 38.0 °F 32.0 °F 70% 30.13 in 10.0 mi South 4.6 mph - N/A   Clear
11:53 PM 39.0 °F - 30.9 °F 73% 30.12 in 10.0 mi Calm Calm - N/A   Clear